This demonstration page uses our WeatherBlox Daily Observations layout. Learn more.

Left ArrowRight Arrow

Hourly Observations for January 25, 2022

Temp ( °F °C ) Dew Point ( °F °C ) Humidity (%) Winds ( mph kmh ) Pressure ( in mb ) Visibility ( mi km ) Precip ( " mm )
12:15 am 00:15 Cloudy 23 -5 18 -8 80 80 NW 15 24 30.00 1016 10 16 N/A
12:35 am 00:35 Cloudy 23 -5 18 -8 80 80 WNW 12 19 30.00 1016 10 16 N/A
12:55 am 00:55 Cloudy 21 -6 18 -8 86 86 WNW 10 17 30.03 1017 7 11 N/A
1:15 am 01:15 Cloudy 21 -6 18 -8 86 86 NW 12 19 30.03 1017 10 16 N/A
1:35 am 01:35 Cloudy 21 -6 18 -8 86 86 WNW 9 15 30.03 1017 10 16 N/A
1:55 am 01:55 Cloudy 19 -7 16 -9 86 86 NW 10 17 30.04 1017 10 16 N/A
2:15 am 02:15 Cloudy 19 -7 16 -9 86 86 WNW 12 19 30.05 1018 10 16 N/A
2:35 am 02:35 Cloudy 19 -7 16 -9 86 86 WNW 10 17 30.06 1018 10 16 N/A
2:55 am 02:55 Cloudy 19 -7 14 -10 79 79 WNW 10 17 30.06 1018 10 16 N/A
3:15 am 03:15 Cloudy 19 -7 14 -10 79 79 NW 7 11 30.07 1018 10 16 N/A
3:35 am 03:35 Cloudy 18 -8 14 -10 86 86 NW 9 15 30.08 1019 10 16 N/A
3:55 am 03:55 Cloudy 18 -8 14 -10 86 86 NW 12 19 30.09 1019 10 16 N/A
4:15 am 04:15 Cloudy 16 -9 12 -11 86 86 WNW 10 17 30.11 1020 10 16 N/A
4:35 am 04:35 Cloudy 16 -9 12 -11 86 86 NW 9 15 30.12 1020 10 16 N/A
4:55 am 04:55 Partly Cloudy 14 -10 10 -12 85 85 WNW 8 13 30.12 1020 10 16 N/A
5:15 am 05:15 Clear 14 -10 10 -12 85 85 WNW 9 15 30.13 1020 10 16 N/A
5:35 am 05:35 Clear 14 -10 10 -12 85 85 WNW 7 11 30.14 1021 10 16 N/A
5:55 am 05:55 Clear 12 -11 10 -12 92 92 WNW 9 15 30.16 1021 10 16 N/A
6:15 am 06:15 Clear 12 -11 9 -13 85 85 WNW 7 11 30.18 1022 10 16 N/A
6:35 am 06:35 Clear 12 -11 9 -13 85 85 WNW 9 15 30.18 1022 10 16 N/A
6:55 am 06:55 Clear 10 -12 7 -14 85 85 WNW 5 7 30.20 1023 10 16 N/A
7:15 am 07:15 Clear 10 -12 7 -14 85 85 NW 5 7 30.21 1023 10 16 N/A
7:35 am 07:35 Clear 9 -13 7 -14 92 92 NW 5 7 30.22 1024 10 16 N/A
7:55 am 07:55 Clear 9 -13 7 -14 92 92 NW 5 7 30.23 1024 10 16 N/A
8:15 am 08:15 Sunny 9 -13 7 -14 92 92 NW 3 6 30.23 1024 10 16 N/A
8:35 am 08:35 Sunny 10 -12 7 -14 85 85 WNW 5 7 30.25 1024 10 16 N/A
8:55 am 08:55 Sunny 12 -11 7 -14 79 79 WNW 6 9 30.26 1025 10 16 N/A
9:15 am 09:15 Sunny 12 -11 7 -14 79 79 WNW 7 11 30.27 1025 10 16 N/A
9:35 am 09:35 Sunny 14 -10 9 -13 79 79 WNW 7 11 30.27 1025 10 16 N/A
9:55 am 09:55 Sunny 16 -9 9 -13 73 73 NW 5 7 30.27 1025 10 16 N/A
10:15 am 10:15 Sunny 16 -9 9 -13 73 73 NW 7 11 30.29 1026 10 16 N/A
10:35 am 10:35 Sunny 18 -8 7 -14 62 62 WNW 7 11 30.29 1026 10 16 N/A
10:55 am 10:55 Sunny 19 -7 9 -13 63 63 NW 8 13 30.30 1026 10 16 N/A
11:15 am 11:15 Sunny 19 -7 7 -14 58 58 NW 9 15 30.31 1026 10 16 N/A
11:35 am 11:35 Sunny 21 -6 7 -14 54 54 NW 9 15 30.31 1026 10 16 N/A
11:55 am 11:55 Sunny 21 -6 7 -14 54 54 NW 12 19 30.31 1026 10 16 N/A
12:15 pm 12:15 Sunny 23 -5 9 -13 54 54 NW 9 15 30.29 1026 10 16 N/A
12:35 pm 12:35 Sunny 21 -6 7 -14 54 54 WNW 9 15 30.30 1026 10 16 N/A
12:55 pm 12:55 Sunny 23 -5 9 -13 54 54 NW 9 15 30.29 1026 10 16 N/A
1:15 pm 13:15 Sunny 23 -5 7 -14 50 50 NW 9 15 30.28 1026 10 16 N/A
1:35 pm 13:35 Sunny 25 -4 9 -13 50 50 NW 9 15 30.28 1025 10 16 N/A
1:55 pm 13:55 Sunny 25 -4 9 -13 50 50 W 7 11 30.28 1025 10 16 N/A
2:15 pm 14:15 Sunny 25 -4 7 -14 46 46 W 10 17 30.28 1025 10 16 N/A
2:35 pm 14:35 Sunny 25 -4 7 -14 46 46 WNW 10 17 30.28 1025 10 16 N/A
2:55 pm 14:55 Sunny 25 -4 7 -14 46 46 WNW 9 15 30.29 1026 10 16 N/A
3:15 pm 15:15 Sunny 25 -4 7 -14 46 46 NW 12 19 30.29 1026 10 16 N/A
3:35 pm 15:35 Sunny 23 -5 7 -14 50 50 NW 8 13 30.30 1026 10 16 N/A
3:55 pm 15:55 Sunny 23 -5 5 -15 46 46 NW 10 17 30.30 1026 10 16 N/A
4:15 pm 16:15 Sunny 23 -5 5 -15 46 46 WNW 12 19 30.31 1027 10 16 N/A
4:35 pm 16:35 Sunny 23 -5 5 -15 46 46 NW 12 19 30.32 1027 10 16 N/A
4:55 pm 16:55 Sunny 21 -6 3 -16 45 45 NW 7 11 30.33 1027 10 16 N/A
5:15 pm 17:15 Sunny 21 -6 3 -16 45 45 WNW 8 13 30.34 1027 10 16 N/A
5:35 pm 17:35 Sunny 19 -7 1 -17 45 45 WNW 8 13 30.35 1028 10 16 N/A
5:55 pm 17:55 Clear 18 -8 1 -17 49 49 NW 9 15 30.36 1028 10 16 N/A
6:15 pm 18:15 Clear 16 -9 1 -17 53 53 NW 8 13 30.37 1028 10 16 N/A
6:35 pm 18:35 Clear 16 -9 1 -17 53 53 NW 9 15 30.37 1028 10 16 N/A
6:55 pm 18:55 Clear 14 -10 1 -17 57 57 NW 8 13 30.38 1029 10 16 N/A
7:15 pm 19:15 Clear 14 -10 3 -16 62 62 NNW 7 11 30.38 1029 10 16 N/A
7:35 pm 19:35 Clear 12 -11 3 -16 67 67 NNW 8 13 30.40 1029 10 16 N/A
7:55 pm 19:55 Clear 12 -11 3 -16 67 67 NNW 9 15 30.41 1030 10 16 N/A
8:15 pm 20:15 Clear 12 -11 3 -16 67 67 NW 7 11 30.42 1030 10 16 N/A
8:35 pm 20:35 Clear 10 -12 3 -16 72 72 WNW 5 7 30.42 1030 10 16 N/A
8:55 pm 20:55 Clear 10 -12 3 -16 72 72 WNW 9 15 30.43 1031 10 16 N/A
9:15 pm 21:15 Clear 10 -12 1 -17 67 67 NW 8 13 30.43 1031 10 16 N/A
9:35 pm 21:35 Clear 10 -12 1 -17 67 67 WNW 10 17 30.44 1031 10 16 N/A
9:55 pm 21:55 Clear 10 -12 0 -18 61 61 WNW 10 17 30.45 1031 10 16 N/A
10:15 pm 22:15 Clear 9 -13 0 -18 66 66 WNW 12 19 30.46 1031 10 16 N/A
10:35 pm 22:35 Clear 9 -13 0 -18 66 66 WNW 8 13 30.46 1031 10 16 N/A
10:55 pm 22:55 Clear 9 -13 0 -18 66 66 WNW 7 11 30.47 1032 10 16 N/A
11:15 pm 23:15 Clear 7 -14 0 -18 72 72 WNW 6 9 30.48 1032 10 16 N/A
11:35 pm 23:35 Clear 7 -14 0 -18 72 72 WNW 7 11 30.48 1032 10 16 N/A
11:55 pm 23:55 Clear 7 -14 -2 -19 66 66 WNW 9 15 30.48 1032 10 16 N/A

Powered by AerisWeather